AirNav   Everest Fuels
 
 450 users online  

2OK2 Twin Lakes Airport
Midwest City, Oklahoma, USA

GOING TO MIDWEST CITY?


FAA INFORMATION EFFECTIVE 21 MAY 2020

Location

FAA Identifier: 2OK2
Lat/Long: 35-19-45.2390N 097-16-11.1080W
35-19.753983N 097-16.185133W
35.3292331,-97.2697522
(estimated)
Elevation: 1199 ft. / 365 m (estimated)
Variation: 07E (1985)
From city: 10 miles SE of MIDWEST CITY, OK
Time zone: UTC -5 (UTC -6 during Standard Time)
Zip code: 73165

Airport Operations

Airport use: Private use. Permission required prior to landing
Control tower: no
ARTCC: FORT WORTH CENTER
FSS: MC ALESTER FLIGHT SERVICE STATION
Attendance: UNATNDD
Wind indicator: yes
Segmented circle: no
Lights: ACTVT LIRL RY N/S - 122.7.

Airport Communications

UNICOM: 122.7
WX AWOS-3 at OUN (11 nm SW): 119.55 (405-325-7302)
WX AWOS-3 at SNL (16 nm E): 118.275 (405-878-1745)
WX ASOS at OKC (17 nm W): PHONE 405-686-4711

Nearby radio navigation aids

VOR radial/distance  VOR name  Freq  Var
IRWr089/16.7WILL ROGERS VORTAC114.1007E
PWAr116/22.1WILEY POST VOR/DME113.4008E

 
NDB name  Hdg/Dist  Freq  Var  ID
MULDROW348/18.151206EHMY .... -- -.--
SEMINOLE271/29.327806ESRE ... .-. .

Airport Services

Airframe service: NONE
Powerplant service: NONE

Runway Information

Runway N/S

Dimensions: 2702 x 30 ft. / 824 x 9 m
Surface: concrete
Runway edge lights: low intensity
RUNWAY N  RUNWAY S
Traffic pattern: rightleft
Obstructions: 300 ft. pline, 4000 ft. from runwaynone

Airport Ownership and Management from official FAA records

Ownership: Privately-owned
Owner: PILOTS HAVEN AIRPORT INC
014112 CHANDELLE DRIVE
NEWALLA, OK 74857
Phone 405-799-6049
Manager: MARSHALL ALEXANDER
14112 CHANDELLE DRIVE
NEWALLA, OK 74857
Phone 405-799-6049

Airport Operational Statistics

Aircraft based on the field: 20
Single engine airplanes: 19
Multi engine airplanes: 1
    

Additional Remarks

SHARP DROP OFF AT EACH END OF RWY.
HIGH LINE AT RIGHT ANGLE TO RWY-APRX 3/4MI FM S END OF RWY.
FOR CD CTC OKE CITY APCH AT 405-681-5683.

Instrument Procedures

There are no published instrument procedures at 2OK2.

Some nearby airports with instrument procedures:

KTIK - Tinker Air Force Base (8 nm NW)
KOUN - University of Oklahoma Westheimer Airport (11 nm SW)
1K4 - David Jay Perry Airport (14 nm SW)
KSNL - Shawnee Regional Airport (16 nm E)
KOKC - Will Rogers World Airport (17 nm W)
KHMY - Muldrow Army Heliport (18 nm S)
 
Loc | Ops | Rwys | IFR | FBO | Links
Com | Nav | Svcs | Stats | Notes
Area around 2OK2 (Twin Lakes Airport)
 
Road maps at: MapQuest Bing Google
 
Aerial photo
WARNING: Photo may not be current or correct
Aerial photo of 2OK2 (Twin Lakes Airport)
Do you have a better or more recent aerial photo of Twin Lakes Airport that you would like to share? If so, please send us your photo.

 
Sectional chart

 
Airport distance calculator
Flying to Twin Lakes Airport? Find the distance to fly.

From to 2OK2

Sunrise and sunset
Times for 02-Jun-2020
 Local
(UTC-5)
 Zulu
(UTC)
Morning civil twilight05:4610:46
Sunrise06:1611:16
Sunset20:3901:39
Evening civil twilight21:0802:08

Current date and time
Zulu (UTC)  02-Jun-2020 06:18:31
Local (UTC-5)  02-Jun-2020 01:18:31
 
METAR
KTIK 
7nm NW 
020556Z AUTO 17008KT 10SM CLR 20/16 A3009 RMK AO2 SLP185 T02010161 10269 20201 402830169 50002
KOUN 
11nm SW 
020555Z AUTO 16007KT 10SM CLR 21/16 A3007 RMK AO2 T02070163 10275 20206
KSNL 
16nm E 
020555Z AUTO 18006KT 10SM CLR 19/17 A3009 RMK AO2 T01890166 10267 20189 402860170
KOKC 
16nm W 
020552Z 17007KT 10SM BKN250 18/16 A3009 RMK AO2 SLP175 T01830161 10272 20183 402890156 50002
TAF
KTIK 
7nm NW 
020100Z 0201/0307 15006KT 9999 FEW300 QNH3000INS BECMG 0221/0222 18010G15KT 9999 FEW045 QNH2997INS BECMG 0303/0304 17006KT 9999 SCT021 QNH3001INS BECMG 0304/0305 17006KT 9999 FEW021 QNH2998INS TX29/0221Z TN19/0211Z
KOUN 
11nm SW 
020520Z 0206/0306 15008KT P6SM BKN250 FM021400 17011G17KT P6SM SCT050 BKN150 FM030000 15008KT P6SM BKN250
KOKC 
16nm W 
020520Z 0206/0306 16007KT P6SM BKN250 FM021400 18012G18KT P6SM SCT050 BKN150 FM030000 16008KT P6SM BKN150
NOTAMs
Click for the latest NOTAMs
NOTAMs are issued by the DoD/FAA and will open in a separate window not controlled by AirNav.

 

 
 

Would you like to see your business listed on this page?

 If your business provides an interesting product or service to pilots, flight crews, aircraft, or users of the Twin Lakes Airport, you should consider listing it here.  To start the listing process, click on the button below
 
Add a business
 

Other Pages about Twin Lakes Airport

Update a link
 
Copyright © AirNav, LLC. All rights reserved. Privacy Policy  Contact